Location: Newark
(27.5000°N, 79.4000°E)
Time: 19:19:01
(UTC+00:00)

Envisat - Visible Passes

Search period start: 14 December 2019 00:00
Search period end: 24 December 2019 00:00
Orbit: 764 x 766 km, 98.1° (Epoch: 14 December)

Date Brightness Start Highest point End Pass type
(mag) Time Alt. Az. Time Alt. Az. Time Alt. Az.
14 Dec 5.4 00:38:06 10° NE 00:42:23 27° E 00:46:38 10° SSE visible
14 Dec 4.5 13:23:46 10° SSW 13:28:27 38° W 13:33:10 10° NNW visible
15 Dec 2.9 12:46:37 10° SSE 12:51:41 83° ENE 12:56:46 10° N visible
16 Dec 3.7 12:10:35 10° SE 12:15:04 33° ENE 12:19:33 10° N visible
16 Dec 5.6 13:50:24 10° SW 13:54:02 20° W 13:57:41 10° NW visible
17 Dec 5.8 00:27:18 10° NE 00:31:03 21° E 00:34:47 10° SE visible
17 Dec 3.9 13:12:15 10° S 13:17:09 50° W 13:22:05 10° NNW visible
18 Dec 3.0 12:35:26 10° SSE 12:40:26 63° ENE 12:45:27 10° N visible
19 Dec 4.6 00:51:53 10° NNE 00:56:38 39° E 01:01:21 10° SSE visible
19 Dec 5.2 13:38:32 10° SSW 13:42:42 26° W 13:46:54 10° NW visible
20 Dec 6.0 00:16:44 10° ENE 00:19:43 16° E 00:22:40 10° SE visible
20 Dec 3.4 13:00:50 10° S 13:05:52 67° WSW 13:10:56 10° NNW visible
21 Dec 3.2 12:24:20 10° SSE 12:29:12 47° ENE 12:34:02 10° N visible
21 Dec 6.1 14:05:58 10° WSW 14:08:20 13° W 14:10:42 10° WNW visible
22 Dec 5.2 00:40:53 10° NE 00:45:19 30° E 00:49:43 10° SSE visible
22 Dec 4.7 13:26:49 10° SSW 13:31:23 34° W 13:35:59 10° NNW visible
23 Dec 6.3 00:06:44 10° ENE 00:08:21 11° E 00:09:58 10° ESE visible
23 Dec 3.0 12:49:31 10° SSE 12:54:35 88° WSW 12:59:41 10° NNW visible
